sat.trackr.live / text

‹ back to catalog

STARLINK-34898

NORAD 65895 · 2025-224P

PAYLOAD ACTIVE UNKNOWN

§ Identity

Operator
Country
US
Launch date
2025-10-07
Launch site
AFETR
Launch vehicle
Mass (kg)
RCS (m²)

Purposes: comms

External: N2YO · Heavens-Above · Gunter

§ Orbital elements

Epoch: 2026-05-25T00:30:05.285664Z

Period
93.85 min
Inclination
53.1601°
Eccentricity
0.0000913
Mean motion
15.34411223 rev/d
Perigee alt
462.0 km
Apogee alt
463.3 km
Semi-major
6,840.8 km
B*
5.2187e-4
RAAN
15.8947°
Arg perigee
91.4426°
Mean anomaly
268.6681°
Rev number
3,657

§ Raw data

STARLINK-348981 65895U 25224P   26145.02089451  .00017303  00000+0  52187-3 0  99942 65895  53.1601  15.8947 0000913  91.4426 268.6681 15.34411223 36578

JSON: /api/v1/satellites/65895 · /tle

For live sub-satellite position, see the globe view (requires WebGL).

§ Visibility from observer

Set your observer location to see the next 7 days of passes ≥ 10°. The values pass through the URL so the page stays shareable.

No JS? Fill the form by hand. The geolocation button needs JavaScript.